EW6388 Weather Reports


Display with metric or nautical units.
time (UTC)temp
F
wind
direction
speed
MPH
gust
MPH
rain 1hr
in
rain 24hr
in
rain mn
in
humidity
%
barometer
mb
20260502221008 50 5 0.0 0.0 0.09 0.28 0.28 95 1011.3
20260502220504 50 5 0.0 0.0 0.09 0.28 0.28 94 1011.3
20260502220009 50 5 0.0 0.0 0.08 0.27 0.27 94 1011.3
20260502215504 50 28 0.0 0.0 0.08 0.26 0.26 94 1011.4
20260502215007 50 5 0.0 0.0 0.07 0.25 0.25 94 1011.4
20260502214512 50 349 0.0 0.0 0.07 0.24 0.24 94 1011.4
20260502214011 50 9 0.0 0.0 0.06 0.23 0.23 94 1011.5
20260502213507 50 5 0.0 0.0 0.07 0.23 0.23 94 1011.6
20260502213011 50 5 0.0 0.0 0.07 0.22 0.22 94 1011.6
20260502212503 50 5 0.0 0.0 0.07 0.21 0.21 94 1011.6
20260502212005 50 5 0.0 0.0 0.07 0.21 0.21 94 1011.6
20260502211510 50 22 0.0 0.0 0.07 0.20 0.20 94 1011.7
20260502211007 50 22 0.0 0.0 0.07 0.19 0.19 94 1011.7
20260502210513 50 22 0.0 0.0 0.08 0.19 0.19 94 1011.7
20260502210014 50 47 0.0 0.0 0.09 0.19 0.19 94 1011.8
20260502205508 50 53 0.0 0.0 0.10 0.18 0.18 93 1011.8
20260502205004 50 53 0.0 0.0 0.10 0.18 0.18 93 1011.9
20260502204512 50 53 0.0 0.0 0.10 0.17 0.17 93 1011.9
20260502204004 51 9 0.0 0.0 0.10 0.17 0.17 93 1011.9
20260502203506 51 5 0.0 0.0 0.10 0.16 0.16 93 1012.0
20260502203016 51 5 0.0 0.0 0.09 0.15 0.15 93 1012.0
20260502202506 51 5 0.0 0.0 0.09 0.14 0.14 93 1012.0
20260502202007 51 5 0.0 0.0 0.10 0.14 0.14 92 1012.1
20260502201517 51 5 0.0 0.0 0.09 0.13 0.13 92 1012.2
20260502201007 51 24 0.0 0.0 0.09 0.12 0.12 91 1012.2
20260502200504 51 96 0.0 0.0 0.09 0.11 0.11 90 1012.2
20260502200015 51 103 0.0 0.0 0.08 0.10 0.10 90 1012.2
20260502195507 51 113 0.0 0.0 0.07 0.08 0.08 90 1012.2
20260502195005 52 5 0.0 0.0 0.07 0.08 0.08 90 1012.2
20260502194517 52 5 0.0 0.0 0.06 0.07 0.07 90 1012.3
20260502194004 52 5 0.0 0.0 0.07 0.07 0.07 90 1012.2
20260502193506 52 5 0.0 0.0 0.06 0.06 0.06 89 1012.2
20260502192512 52 5 0.0 0.0 0.05 0.05 0.05 89 1012.2
20260502192007 53 5 0.0 0.0 0.04 0.04 0.04 88 1012.1
20260502191518 53 5 0.0 0.0 0.04 0.04 0.04 88 1012.1
20260502191003 53 5 0.0 0.0 0.03 0.03 0.03 87 1012.2
20260502190507 53 5 0.0 0.0 0.02 0.02 0.02 87 1012.1
20260502190020 53 5 0.0 0.0 0.02 0.02 0.02 87 1012.2
20260502185504 53 5 0.0 0.0 0.01 0.01 0.01 86 1012.2
20260502185006 53 5 0.0 0.0 0.01 0.01 0.01 86 1012.2
20260502184504 54 5 0.0 0.0 0.01 0.01 0.01 86 1012.3
20260502184003 54 5 0.0 0.0 0.00 0.00 0.00 85 1012.2
20260502183503 54 5 0.0 0.0 0.00 0.00 0.00 85 1012.2
20260502183013 54 5 0.0 0.0 0.00 0.00 0.00 84 1012.2
20260502182502 54 5 0.0 2.0 0.00 0.00 0.00 83 1012.3
20260502182003 54 20 0.0 3.0 0.00 0.00 0.00 83 1012.4
20260502181513 54 48 1.0 4.0 0.00 0.00 0.00 82 1012.4
20260502181005 54 46 2.0 4.0 0.00 0.00 0.00 81 1012.3
20260502180506 55 40 2.0 4.0 0.00 0.00 0.00 79 1012.4
20260502170509 56 61 4.0 8.0 0.00 0.00 0.00 76 1012.6
20260502164003 58 67 4.0 7.0 0.00 0.00 0.00 70 1012.7
20260502163504 58 64 5.0 7.0 0.00 0.00 0.00 70 1012.7
20260502163021 58 85 4.0 7.0 0.00 0.00 0.00 68 1012.7
20260502162503 58 66 3.0 7.0 0.00 0.00 0.00 68 1012.7
20260502162006 58 81 5.0 7.0 0.00 0.00 0.00 69 1012.8
20260502161518 58 80 3.0 5.0 0.00 0.00 0.00 71 1012.8
20260502161003 58 55 3.0 8.0 0.00 0.00 0.00 69 1012.8
20260502160502 58 105 5.0 8.0 0.00 0.00 0.00 69 1012.9
20260502152010 59 112 2.0 8.0 0.00 0.01 0.00 65 1013.5
20260502151508 59 91 4.0 8.0 0.00 0.02 0.00 68 1013.5
20260502151002 60 79 4.0 6.0 0.00 0.03 0.00 65 1013.5
20260502150504 60 76 1.0 8.0 0.00 0.05 0.00 62 1013.6
20260502130507 61 247 2.0 4.0 0.00 0.09 0.00 61 1014.7
20260502123506 62 340 1.0 5.0 0.00 0.09 0.00 59 1015.0
20260502123017 62 263 2.0 5.0 0.00 0.09 0.00 58 1015.1
20260502122506 62 244 2.0 5.0 0.00 0.09 0.00 61 1015.2
20260502122011 62 181 1.0 7.0 0.00 0.09 0.00 59 1015.3
20260502121514 62 205 3.0 8.0 0.00 0.09 0.00 61 1015.4
20260502121008 62 202 3.0 8.0 0.00 0.09 0.00 64 1015.6
20260502120514 62 181 3.0 7.0 0.00 0.09 0.00 60 1015.6
20260502115504 61 232 4.0 7.0 0.00 0.10 0.00 66 1015.7
20260502115007 61 192 1.0 7.0 0.00 0.10 0.00 65 1015.8
20260502114527 60 265 1.0 7.0 0.00 0.10 0.00 63 1015.8
20260502114006 60 261 4.0 7.0 0.00 0.10 0.00 64 1015.8
20260502113506 59 235 2.0 7.0 0.00 0.10 0.00 66 1015.8
20260502113014 59 236 4.0 7.0 0.00 0.12 0.00 65 1015.9
20260502112506 59 233 2.0 7.0 0.00 0.13 0.00 63 1016.0
20260502112007 59 208 3.0 7.0 0.00 0.13 0.00 65 1016.1
20260502111520 58 171 0.0 4.0 0.00 0.14 0.00 67 1016.1
20260502111007 58 177 1.0 8.0 0.00 0.15 0.00 67 1016.2
20260502110504 58 262 3.0 8.0 0.00 0.16 0.00 66 1016.1
20260502110021 58 248 4.0 8.0 0.00 0.16 0.00 67 1016.2
20260502105514 58 173 2.0 8.0 0.00 0.17 0.00 67 1016.3
20260502105008 58 243 4.0 8.0 0.00 0.17 0.00 68 1016.2
20260502104519 57 219 2.0 5.0 0.00 0.17 0.00 67 1016.2
20260502104008 57 240 2.0 7.0 0.00 0.17 0.00 71 1016.2
20260502103512 56 259 1.0 7.0 0.00 0.17 0.00 71 1016.2
20260502103011 56 286 2.0 7.0 0.00 0.17 0.00 73 1016.2
20260502102507 57 279 4.0 10.0 0.00 0.17 0.00 70 1016.2
20260502102007 57 261 5.0 10.0 0.00 0.17 0.00 73 1016.2
20260502101520 56 264 2.0 8.0 0.00 0.17 0.00 75 1016.2
20260502101004 56 233 2.0 8.0 0.00 0.17 0.00 73 1016.3
20260502100508 55 232 2.0 7.0 0.00 0.17 0.00 75 1016.2
20260502091516 54 304 2.0 8.0 0.00 0.17 0.00 79 1017.0
20260502091006 54 248 4.0 8.0 0.00 0.17 0.00 78 1016.9
20260502090503 53 221 2.0 8.0 0.00 0.17 0.00 79 1016.8
20260502071510 51 226 2.0 9.0 0.00 0.17 0.00 84 1017.0
20260502071006 51 227 2.0 10.0 0.00 0.17 0.00 86 1017.0
20260502070507 51 172 2.0 10.0 0.00 0.17 0.00 85 1017.0
20260502070019 51 244 3.0 7.0 0.00 0.17 0.00 87 1017.0
20260502065507 51 173 3.0 7.0 0.00 0.17 0.00 88 1017.0
20260502065006 50 196 3.0 7.0 0.00 0.17 0.00 91 1017.0
20260502064513 50 171 3.0 8.0 0.00 0.17 0.00 91 1016.8
20260502064006 49 184 4.0 8.0 0.00 0.17 0.00 92 1016.6
20260502063507 49 175 4.0 6.0 0.00 0.17 0.00 92 1016.6
20260502063023 48 180 4.0 5.0 0.00 0.17 0.00 92 1016.6
20260502062506 48 195 2.0 4.0 0.00 0.17 0.00 93 1016.5
20260502062012 47 196 2.0 4.0 0.00 0.17 0.00 93 1016.6
20260502061526 47 154 2.0 4.0 0.00 0.17 0.00 94 1016.7
20260502061003 47 130 2.0 4.0 0.00 0.17 0.00 95 1016.5
20260502060511 46 172 2.0 4.0 0.00 0.17 0.00 95 1016.5
20260502060012 46 167 2.0 4.0 0.00 0.17 0.00 95 1016.5
20260502055503 46 167 0.0 2.0 0.00 0.17 0.00 95 1016.6
20260502055006 45 140 0.0 2.0 0.00 0.17 0.00 95 1016.7
20260502054518 45 175 1.0 2.0 0.00 0.17 0.00 95 1016.7
20260502054005 45 207 0.0 3.0 0.00 0.17 0.00 95 1016.7
20260502053506 44 202 1.0 3.0 0.00 0.17 0.00 94 1016.7
20260502053022 44 168 2.0 2.0 0.00 0.17 0.00 94 1016.7
20260502052507 44 200 0.0 2.0 0.00 0.17 0.00 94 1016.6
20260502052008 44 211 0.0 2.0 0.00 0.17 0.00 94 1016.7
20260502051527 44 196 1.0 2.0 0.00 0.17 0.00 94 1016.6
20260502051006 44 206 1.0 2.0 0.00 0.17 0.00 95 1016.6
20260502050509 44 197 1.0 2.0 0.00 0.17 0.00 95 1016.6
20260502050015 44 186 1.0 2.0 0.00 0.17 0.00 95 1016.7
20260502045508 45 178 0.0 2.0 0.00 0.17 0.00 95 1016.7
20260502045008 44 168 1.0 3.0 0.00 0.17 0.00 95 1016.7
20260502044513 45 219 1.0 3.0 0.00 0.17 0.00 95 1016.7
20260502044006 45 199 0.0 0.0 0.00 0.17 0.00 94 1016.7
20260502043507 45 144 0.0 1.0 0.00 0.17 0.00 94 1016.7
20260502043024 45 200 0.0 2.0 0.00 0.17 0.00 95 1016.7
20260502042506 45 184 1.0 4.0 0.00 0.17 0.00 95 1016.7
20260502042011 45 208 1.0 4.0 0.00 0.17 0.00 1016.7
20260502041524 45 192 2.0 3.0 0.00 0.17 0.00 96 1016.7
20260502041011 45 192 1.0 3.0 0.00 0.17 0.00 96 1016.8
20260502040507 45 175 1.0 3.0 0.00 0.17 0.00 96 1016.9
20260502040021 45 159 1.0 2.0 0.00 0.17 0.00 96 1016.9
20260502035510 45 157 1.0 2.0 0.00 0.17 0.00 96 1017.0
20260502035009 45 173 0.0 2.0 0.00 0.17 0.00 96 1017.0
20260502034520 44 182 1.0 4.0 0.00 0.17 0.00 96 1017.1
20260502034008 44 231 0.0 4.0 0.00 0.17 0.00 96 1017.2
20260502033510 44 186 1.0 3.0 0.00 0.17 0.00 96 1017.2
20260502033016 44 214 1.0 3.0 0.00 0.17 0.00 96 1017.2
20260502032507 44 181 1.0 3.0 0.00 0.17 0.00 95 1017.2
20260502032008 44 219 1.0 3.0 0.00 0.17 0.00 95 1017.2
20260502031522 43 212 1.0 3.0 0.00 0.17 0.00 95 1017.2
20260502031006 43 163 1.0 2.0 0.00 0.17 0.00 95 1017.2
20260502030507 43 199 0.0 2.0 0.00 0.17 0.00 95 1017.3
20260502030024 43 219 1.0 2.0 0.00 0.17 0.00 95 1017.4
20260502025510 43 229 1.0 3.0 0.00 0.17 0.00 95 1017.4
20260502025007 43 236 1.0 3.0 0.00 0.17 0.00 95 1017.4
20260502024530 43 207 1.0 3.0 0.00 0.17 0.00 95 1017.4
20260502024010 43 200 1.0 4.0 0.00 0.17 0.00 95 1017.4
20260502023505 43 159 1.0 4.0 0.00 0.17 0.00 95 1017.4
20260502023025 43 175 0.0 2.0 0.00 0.17 0.00 94 1017.5
20260502022510 43 175 0.0 2.0 0.00 0.17 0.00 94 1017.5
20260502022008 44 175 0.0 2.0 0.00 0.17 0.00 94 1017.6
20260502021521 44 175 1.0 3.0 0.00 0.17 0.00 94 1017.6
20260502021009 44 185 0.0 4.0 0.00 0.17 0.00 95 1017.6
20260502020509 44 178 1.0 4.0 0.00 0.17 0.00 95 1017.6
20260502020022 44 229 1.0 2.0 0.00 0.17 0.00 94 1017.6
20260502015510 44 188 1.0 2.0 0.00 0.17 0.00 94 1017.6
20260502015009 44 148 0.0 2.0 0.00 0.17 0.00 94 1017.7
20260502014509 44 190 1.0 3.0 0.00 0.17 0.00 94 1017.7
20260502014003 44 208 1.0 3.0 0.00 0.17 0.00 94 1017.8
20260502013503 44 188 0.0 2.0 0.00 0.17 0.00 94 1017.9
20260502013014 44 191 1.0 2.0 0.00 0.17 0.00 94 1018.0
20260502012505 44 207 1.0 3.0 0.00 0.17 0.00 94 1018.0
20260502012007 44 167 1.0 4.0 0.00 0.17 0.00 94 1018.0
20260502011512 45 184 3.0 4.0 0.00 0.17 0.00 94 1018.1
20260502011007 45 198 1.0 3.0 0.00 0.17 0.00 94 1018.1
20260502010506 45 205 2.0 5.0 0.00 0.17 0.00 94 1018.2
20260502010017 45 194 2.0 5.0 0.00 0.17 0.00 94 1018.3
20260502005507 45 192 2.0 3.0 0.00 0.17 0.00 95 1018.3
20260502005012 45 191 1.0 2.0 0.00 0.17 0.00 1018.4
20260502004509 45 173 1.0 2.0 0.00 0.17 0.00 95 1018.4
20260502004004 45 135 1.0 2.0 0.00 0.17 0.00 95 1018.5
20260502003502 45 142 0.0 2.0 0.00 0.17 0.00 95 1018.5
20260502003006 45 55 0.0 2.0 0.00 0.17 0.00 95 1018.6
20260502002502 45 98 0.0 2.0 0.00 0.17 0.00 95 1018.6
20260502002006 45 77 0.0 2.0 0.00 0.17 0.00 95 1018.6
20260502001512 45 113 0.0 2.0 0.00 0.17 0.00 95 1018.5
20260502001004 45 142 0.0 2.0 0.00 0.17 0.00 95 1018.5
20260502000503 45 133 0.0 4.0 0.00 0.17 0.00 95 1018.6
20260502000018 44 133 1.0 4.0 0.00 0.17 0.00 95 1018.6
20260501235507 44 162 1.0 5.0 0.00 0.17 0.00 95 1018.7
20260501235009 44 170 2.0 5.0 0.00 0.17 0.00 95 1018.7
20260501234518 44 159 0.0 5.0 0.00 0.17 0.00 95 1018.8
20260501234007 44 170 2.0 5.0 0.00 0.17 0.00 95 1018.8
20260501233505 44 213 2.0 5.0 0.00 0.17 0.00 94 1018.8
20260501233007 44 201 3.0 6.0 0.00 0.17 0.00 94 1018.8
20260501232501 44 209 3.0 6.0 0.00 0.17 0.00 94 1018.8
20260501232002 44 202 3.0 6.0 0.00 0.17 0.00 94 1018.8
20260501231512 44 190 4.0 6.0 0.00 0.17 0.00 94 1018.9
20260501231004 44 192 4.0 8.0 0.00 0.17 0.00 95 1019.0
20260501230507 44 225 4.0 8.0 0.00 0.17 0.00 94 1019.1
20260501230007 44 207 1.0 4.0 0.00 0.17 0.00 94 1019.0
20260501225504 44 194 2.0 4.0 0.00 0.17 0.17 94 1019.1
20260501225008 44 174 2.0 4.0 0.00 0.17 0.17 94 1019.1
20260501224520 44 194 3.0 5.0 0.00 0.17 0.17 93 1019.1
20260501224005 44 209 3.0 8.0 0.00 0.17 0.17 93 1019.1
20260501223504 45 184 4.0 8.0 0.00 0.17 0.17 93 1019.1
20260501223021 45 184 4.0 9.0 0.00 0.17 0.17 93 1019.1
20260501222503 45 201 4.0 7.0 0.00 0.17 0.17 93 1019.1
20260501222007 45 207 3.0 6.0 0.00 0.17 0.17 93 1019.0
20260501221510 45 195 2.0 5.0 0.00 0.17 0.17 93 1019.0